User: anonymous   Login
Location: �terpigny
(49.8910°N, 2.9249°E)
Time: 01:52:13
(UTC+00:00)
Language:

SL-08 RB Rocket - Orbit

View from above orbital plane
View from above orbital plane
View from above satellite
View from above satellite

Ground track
Ground track

The orbit data is extracted from the following two-line orbital elements,

1 26387U 00033D   22020.58669844  .00000409  00000-0  77516-4 0  9991
2 26387  97.7559  45.3305 0026940  26.1178  85.8146 14.68844607411899
Epoch (UTC): 20 January 2022 14:04:50
Eccentricity: 0.0026940
inclination: 97.7559°
perigee height: 646 km
apogee height: 684 km
right ascension of ascending node: 45.3305°
argument of perigee: 26.1178°
revolutions per day: 14.68844607
mean anomaly at epoch: 85.8146°
orbit number at epoch: 41189

The dashed part of the orbit path shows where the satellite is in the earth's shadow,  

DLR